TimeCST,TemperatureF,Dew PointF,Humidity,Sea Level PressureIn,VisibilityMPH,Wind Direction,Wind SpeedMPH,Gust SpeedMPH,PrecipitationIn,Events,Conditions,WindDirDegrees,DateUTC
12:15 AM,13.5,12.0,94,30.25,7.0,Calm,Calm,-,N/A,,Clear,0,2013-01-03 06:15:00
12:35 AM,14.0,12.4,93,30.25,4.0,Calm,Calm,-,N/A,,Clear,0,2013-01-03 06:35:00
1:15 AM,13.1,11.3,93,30.25,2.5,Calm,Calm,-,N/A,,Clear,0,2013-01-03 07:15:00
1:35 AM,12.7,10.9,92,30.24,1.8,SSE,3.5,-,N/A,,Mist,150,2013-01-03 07:35:00
1:55 AM,12.6,10.6,92,30.26,7.0,SSE,5.8,-,N/A,,Clear,160,2013-01-03 07:55:00
2:15 AM,12.2,10.4,92,30.25,7.0,South,4.6,-,N/A,,Clear,170,2013-01-03 08:15:00
2:35 AM,11.3,9.3,92,30.27,7.0,WNW,4.6,-,N/A,,Clear,300,2013-01-03 08:35:00
2:55 AM,11.7,9.3,90,30.26,7.0,Calm,Calm,-,N/A,,Clear,0,2013-01-03 08:55:00
3:15 AM,8.6,5.9,89,30.26,7.0,Calm,Calm,-,N/A,,Clear,0,2013-01-03 09:15:00
3:35 AM,10.8,8.8,92,30.27,7.0,Calm,Calm,-,N/A,,Clear,0,2013-01-03 09:35:00
3:55 AM,11.7,9.7,92,30.26,7.0,SSE,5.8,-,N/A,,Clear,160,2013-01-03 09:55:00
4:15 AM,12.2,10.2,92,30.26,10.0,South,3.5,-,N/A,,Clear,170,2013-01-03 10:15:00
4:35 AM,10.8,8.2,90,30.26,10.0,Calm,Calm,-,N/A,,Clear,0,2013-01-03 10:35:00
4:55 AM,10.0,7.9,91,30.27,7.0,Calm,Calm,-,N/A,,Clear,0,2013-01-03 10:55:00
5:15 AM,11.1,9.0,91,30.27,10.0,Calm,Calm,-,N/A,,Clear,0,2013-01-03 11:15:00
5:35 AM,10.9,8.8,91,30.27,10.0,Calm,Calm,-,N/A,,Clear,0,2013-01-03 11:35:00
5:55 AM,10.9,8.6,90,30.28,10.0,SSE,3.5,-,N/A,,Clear,160,2013-01-03 11:55:00
6:15 AM,11.7,9.5,91,30.29,10.0,Calm,Calm,-,N/A,,Clear,0,2013-01-03 12:15:00
6:35 AM,11.7,9.7,92,30.30,10.0,South,4.6,-,N/A,,Clear,180,2013-01-03 12:35:00
6:55 AM,10.2,7.9,90,30.30,10.0,Calm,Calm,-,N/A,,Clear,0,2013-01-03 12:55:00
7:15 AM,10.2,7.7,90,30.30,7.0,Calm,Calm,-,N/A,,Clear,0,2013-01-03 13:15:00
7:35 AM,10.8,8.4,90,30.31,7.0,Calm,Calm,-,N/A,,Clear,0,2013-01-03 13:35:00
7:55 AM,11.3,9.3,92,30.32,7.0,Calm,Calm,-,N/A,,Clear,0,2013-01-03 13:55:00
8:15 AM,12.0,9.9,91,30.32,7.0,Calm,Calm,-,N/A,,Clear,0,2013-01-03 14:15:00
8:35 AM,14.4,12.9,94,30.32,7.0,Calm,Calm,-,N/A,,Clear,0,2013-01-03 14:35:00
8:55 AM,17.4,15.8,93,30.32,10.0,WSW,3.5,-,N/A,,Clear,240,2013-01-03 14:55:00
9:15 AM,18.0,16.3,93,30.33,10.0,Calm,Calm,-,N/A,,Clear,0,2013-01-03 15:15:00
9:35 AM,21.2,19.4,93,30.34,10.0,Calm,Calm,-,N/A,,Clear,0,2013-01-03 15:35:00
9:55 AM,24.4,20.7,86,30.35,7.0,WSW,5.8,-,N/A,,Clear,250,2013-01-03 15:55:00
10:15 AM,27.7,21.9,79,30.35,10.0,West,5.8,-,N/A,,Clear,280,2013-01-03 16:15:00
10:35 AM,29.7,22.8,76,30.35,7.0,WNW,8.1,-,N/A,,Clear,290,2013-01-03 16:35:00
10:55 AM,30.7,23.5,75,30.35,10.0,WNW,8.1,-,N/A,,Clear,290,2013-01-03 16:55:00
11:15 AM,31.5,24.4,75,30.35,10.0,WNW,4.6,-,N/A,,Clear,290,2013-01-03 17:15:00
11:35 AM,32.0,25.0,75,30.34,10.0,WNW,6.9,-,N/A,,Clear,290,2013-01-03 17:35:00
11:55 AM,32.4,25.3,75,30.34,7.0,WNW,5.8,-,N/A,,Clear,290,2013-01-03 17:55:00
12:15 PM,33.1,25.9,75,30.33,7.0,WNW,8.1,-,N/A,,Clear,290,2013-01-03 18:15:00
12:35 PM,33.8,26.8,75,30.32,7.0,West,9.2,-,N/A,,Clear,280,2013-01-03 18:35:00
12:55 PM,34.7,27.3,74,30.32,7.0,West,5.8,-,N/A,,Clear,260,2013-01-03 18:55:00
1:15 PM,35.1,28.0,76,30.32,7.0,West,5.8,-,N/A,,Clear,260,2013-01-03 19:15:00
1:35 PM,35.8,28.6,75,30.33,7.0,SW,4.6,-,N/A,,Clear,230,2013-01-03 19:35:00
1:55 PM,36.1,28.4,73,30.32,7.0,WSW,3.5,-,N/A,,Clear,240,2013-01-03 19:55:00
2:15 PM,36.5,28.8,74,30.33,7.0,West,5.8,-,N/A,,Clear,260,2013-01-03 20:15:00
2:35 PM,36.7,28.0,71,30.34,7.0,SW,4.6,-,N/A,,Clear,230,2013-01-03 20:35:00
2:55 PM,36.5,28.4,72,30.34,10.0,WSW,4.6,-,N/A,,Clear,250,2013-01-03 20:55:00
3:35 PM,35.6,28.0,74,30.35,7.0,SW,4.6,-,N/A,,Clear,220,2013-01-03 21:35:00
3:55 PM,34.9,27.5,74,30.35,10.0,SW,4.6,-,N/A,,Clear,230,2013-01-03 21:55:00
4:15 PM,34.5,27.3,75,30.35,7.0,SW,5.8,-,N/A,,Clear,220,2013-01-03 22:15:00
4:35 PM,33.3,26.4,76,30.35,7.0,SW,5.8,-,N/A,,Clear,220,2013-01-03 22:35:00
4:55 PM,32.4,26.4,79,30.35,7.0,SW,4.6,-,N/A,,Clear,220,2013-01-03 22:55:00
5:15 PM,29.1,23.7,80,30.36,10.0,SW,4.6,-,N/A,,Clear,220,2013-01-03 23:15:00
5:35 PM,27.3,23.0,84,30.36,7.0,SW,4.6,-,N/A,,Clear,230,2013-01-03 23:35:00
5:55 PM,26.8,23.7,88,30.37,10.0,SW,3.5,-,N/A,,Clear,230,2013-01-03 23:55:00
6:15 PM,24.3,22.5,93,30.37,10.0,SW,3.5,-,N/A,,Clear,230,2013-01-04 00:15:00
6:35 PM,25.7,23.4,91,30.37,10.0,WSW,3.5,-,N/A,,Clear,240,2013-01-04 00:35:00
6:55 PM,23.7,21.9,93,30.38,7.0,WSW,3.5,-,N/A,,Clear,240,2013-01-04 00:55:00
7:15 PM,23.0,21.9,96,30.38,5.0,SSW,3.5,-,N/A,,Clear,210,2013-01-04 01:15:00
7:35 PM,23.2,22.6,98,30.38,5.0,SW,3.5,-,N/A,,Scattered Clouds,220,2013-01-04 01:35:00
7:55 PM,21.7,21.0,97,30.38,4.0,SW,4.6,-,N/A,,Mostly Cloudy,220,2013-01-04 01:55:00
8:15 PM,22.1,21.2,96,30.39,7.0,SSW,4.6,-,N/A,,Overcast,210,2013-01-04 02:15:00
8:35 PM,22.8,21.9,96,30.39,5.0,SW,4.6,-,N/A,,Mostly Cloudy,220,2013-01-04 02:35:00
8:55 PM,24.6,23.7,96,30.39,7.0,WSW,5.8,-,N/A,,Scattered Clouds,240,2013-01-04 02:55:00
9:15 PM,22.8,21.2,93,30.40,7.0,SW,6.9,-,N/A,,Clear,230,2013-01-04 03:15:00
9:35 PM,25.3,23.7,94,30.40,7.0,SW,5.8,-,N/A,,Mostly Cloudy,230,2013-01-04 03:35:00
9:55 PM,26.1,25.0,96,30.41,7.0,SW,4.6,-,N/A,,Overcast,230,2013-01-04 03:55:00
10:15 PM,27.0,25.2,93,30.41,7.0,SW,6.9,-,N/A,,Overcast,220,2013-01-04 04:15:00
10:35 PM,28.4,26.2,92,30.41,10.0,SW,5.8,-,N/A,,Overcast,230,2013-01-04 04:35:00
10:55 PM,28.4,25.9,90,30.41,10.0,SW,6.9,-,N/A,,Overcast,230,2013-01-04 04:55:00
11:15 PM,29.1,26.2,89,30.40,10.0,SW,5.8,-,N/A,,Overcast,220,2013-01-04 05:15:00
11:35 PM,30.2,27.0,88,30.40,10.0,WSW,5.8,-,N/A,,Overcast,250,2013-01-04 05:35:00
11:55 PM,30.0,26.2,86,30.40,7.0,WSW,4.6,-,N/A,,Overcast,240,2013-01-04 05:55:00